[[{"header":{"parameterUnit":"m.s-1","parameterCategory":1,"la1":30.2991,"la2":30.254,"lo1":-89.0895,"lo2":-89.0444,"dy":0.0017,"dx":0.0017,"nx":28,"ny":28,"refTime":"2023-08-07T21:00:00:Z","depth":0,"parameterNumber":2,"parameterNumberName":"U-component_of_WINDS"},"data":[0,0,0,0,0,0,0,0,0,0,0,0,0,0,0,0,0,0,0,0,0,0,0,0,0,0,0,0,0,0,0,0,0,0,0,0,0,0,0,0,0,0,0,0,0,0,0,0,0,0,0,0,0,0,0,0,0,0,3.312,3.312,0,3.312,3.312,3.312,3.3027,3.3024,3.3022,3.302,3.3021,3.3023,3.3025,0,0,0,0,0,0,0,0,0,0,0,0,0,3.3037,3.3039,3.312,3.312,3.312,3.312,3.312,3.312,3.3027,3.3024,3.3021,3.3019,3.302,3.3023,3.3025,0,0,0,0,0,0,0,0,0,0,0,0,0,3.3059,3.304,3.312,3.3074,3.307,3.312,3.312,3.312,3.3028,3.3024,3.3021,3.3017,3.3019,3.3022,3.3026,3.3121,0,0,3.3036,3.3038,0,0,0,0,0,0,0,0,3.3058,3.3062,3.3081,3.3077,3.3072,3.307,3.3091,3.3121,3.3029,3.3044,3.302,3.3015,3.304,3.3041,3.305,3.3121,3.3121,3.3037,3.3039,3.304,3.3041,0,0,0,0,0,0,0,3.3056,3.3062,3.312,3.3081,3.3076,3.3052,3.3051,3.3096,3.3063,3.3042,3.3035,3.3037,3.3037,3.3047,3.3049,3.3121,3.3037,3.304,3.3042,3.3043,3.3266,3.327,0,0,0,0,0,0,3.3061,3.3061,3.312,3.312,3.3056,3.3057,3.3056,3.3074,3.3062,3.3056,3.304,3.3032,3.3042,3.3045,3.3049,3.3156,3.304,3.3043,3.3045,3.3262,3.3267,3.3271,0,0,0,0,0,0,3.306,3.3068,3.312,3.3089,3.3094,3.3062,3.3084,3.3076,3.3086,3.306,3.3053,3.3056,3.304,3.3044,3.3103,3.3154,3.3045,3.3048,3.3258,3.3264,3.3269,3.3373,0,0,0,0,0,0,3.3058,3.3068,3.3104,3.309,3.3096,3.3175,3.3087,3.3079,3.3092,3.3082,3.3073,3.3068,3.3037,3.3098,3.3106,3.3157,3.3051,3.3253,3.326,3.3267,3.3365,3.3382,3.3396,0,0,0,0,0,3.3055,3.3135,3.3107,3.3114,3.3141,3.3178,3.3181,3.3144,3.3097,3.3132,3.3115,3.3069,3.3148,3.3105,3.3113,3.3166,3.3249,3.3258,3.3267,3.3358,3.3378,3.3396,0,0,0,0,0,0,3.3157,3.3132,3.3101,3.3178,3.3181,3.3162,3.3206,3.3167,3.3184,3.3174,3.3126,3.3125,3.3191,3.3185,3.3137,3.3256,3.319,3.3201,3.3257,3.3276,3.3291,3.329,3.3054,0,0,0,0,0,3.3188,3.3221,3.3198,3.3268,3.3271,3.3239,3.3254,3.3224,3.3225,3.3226,3.3213,3.3216,3.3241,3.3259,3.3281,3.3364,3.3359,3.3405,3.342,3.3433,3.3442,3.3481,3.35,3.3299,3.3299,3.3299,0,0,3.3253,3.3244,3.3268,3.3288,3.3287,3.332,3.324,3.3281,3.3304,3.3232,3.3285,3.3277,3.3276,3.3347,3.3377,3.3344,3.3497,3.3444,3.3455,3.3456,3.3492,3.3511,3.3528,3.3305,3.3304,3.3303,0,0,3.3388,3.3386,3.3442,3.3442,3.344,3.3417,3.3431,3.3418,3.3409,3.3462,3.3407,3.3435,3.3481,3.3481,3.3487,3.3619,3.3576,3.3628,3.3709,3.3748,3.3763,3.3777,3.382,3.3837,3.3638,3.3638,3.3638,0,3.3469,3.3518,3.3476,3.3518,3.3527,3.3463,3.3517,3.352,3.3526,3.3533,3.3496,3.3548,3.3544,3.3611,3.3643,3.3652,3.3664,3.3628,3.3765,3.3778,3.379,3.3831,3.3847,3.3644,3.3643,3.3643,3.3642,0,3.3615,3.365,3.3695,3.37,3.3715,3.3764,3.3728,3.3748,3.3717,3.3698,3.3751,3.3743,3.376,3.3775,3.3746,3.3837,3.3816,3.3773,3.3706,3.3816,3.3853,3.3869,3.3653,3.3651,3.3649,3.3647,0,0,3.3814,3.3793,3.381,3.381,3.3802,3.3827,3.3873,3.3888,3.3904,3.3911,3.3945,3.3984,3.3942,3.395,3.392,3.3955,3.4055,3.3906,3.3905,3.3931,3.415,3.418,3.4199,3.4027,3.403,3.4032,3.4149,0,3.3941,3.4015,3.3977,3.4056,3.4085,3.4023,3.4061,3.406,3.4044,3.4065,3.4047,3.4073,3.4019,3.4022,3.4054,3.4036,3.4097,3.4027,3.4056,3.4057,3.4054,3.4219,3.4252,3.4362,3.4164,3.4166,3.4168,0,3.4099,3.4109,3.419,3.4173,3.4184,3.4219,3.4228,3.4251,3.4247,3.4233,3.424,3.4201,3.4242,3.4178,3.4232,3.4185,3.4194,3.4187,3.419,3.4189,3.4117,3.4218,3.4397,3.4412,3.4191,3.4189,3.4188,0,3.423,3.4265,3.4316,3.4318,3.4301,3.4327,3.4321,3.4314,3.4324,3.4333,3.4339,3.4353,3.436,3.4372,3.4337,3.4294,3.4395,3.4329,3.4381,3.4382,3.4403,3.4401,3.4582,3.4416,3.4416,3.4415,3.4415,0,3.4374,3.4425,3.4374,3.4405,3.446,3.4416,3.4471,3.4458,3.4452,3.4479,3.4428,3.4454,3.4409,3.443,3.4404,3.445,3.4455,3.4443,3.4434,3.4445,3.4446,3.4448,3.4438,3.442,3.4419,3.4418,3.4417,0,3.4528,3.4497,3.4548,3.4527,3.4522,3.4563,3.4544,3.4572,3.4551,3.4585,3.4591,3.4559,3.4581,3.4548,3.4568,3.455,3.4613,3.4595,3.4613,3.4607,3.466,3.4654,3.4845,3.4866,3.469,3.4692,3.4694,0,3.462,3.4657,3.4639,3.4652,3.4649,3.4672,3.4682,3.464,3.4652,3.4649,3.4677,3.4694,3.4706,3.4744,3.4722,3.4736,3.4715,3.4781,3.4717,3.4725,3.4711,3.4708,3.471,3.4794,3.4796,3.4798,3.4799,0,3.4785,3.4767,3.4782,3.4792,3.4804,3.4811,3.4813,3.4827,3.4783,3.4799,3.482,3.4829,3.4847,3.4864,3.4872,3.4865,3.4824,3.482,3.4832,3.4841,3.4849,3.4841,3.4645,3.4815,3.4813,3.4812,3.4811,3.4811,3.4908,3.4936,3.4926,3.4944,3.4941,3.4944,3.4967,3.4948,3.4965,3.4975,3.495,3.4977,3.497,3.4976,3.4973,3.4993,3.4963,3.4982,3.4986,3.4991,3.4997,3.4849,3.4995,3.4994,3.4994,3.4993,3.4993,0,3.5066,3.5056,3.5073,3.5076,3.509,3.505,3.505,3.5064,3.5087,3.5084,3.5096,3.5118,3.5134,3.5113,3.5125,3.5144,3.5125,3.5148,3.5145,3.5143,3.5024,3.5011,3.5163,3.5163,3.5163,3.5163,3.5163,3.5163,3.5149,3.5193,3.5174,3.5215,3.5205,3.5229,3.5232,3.5233,3.523,3.5257,3.5269,3.5255,3.5244,3.5254,3.5266,3.5259,3.5264,3.5293,3.528,3.5169,3.5152,3.5136,3.5122,3.5296,3.5296,3.5396,3.5397,3.5397]},{"header":{"parameterUnit":"m.s-1","parameterCategory":1,"la1":30.2991,"la2":30.254,"lo1":-89.0895,"lo2":-89.0444,"dy":0.0017,"dx":0.0017,"nx":28,"ny":28,"refTime":"2023-08-07T21:00:00:Z","depth":0,"parameterNumber":3,"parameterNumberName":"V-component_of_WINDS"},"data":[0,0,0,0,0,0,0,0,0,0,0,0,0,0,0,0,0,0,0,0,0,0,0,0,0,0,0,0,0,0,0,0,0,0,0,0,0,0,0,0,0,0,0,0,0,0,0,0,0,0,0,0,0,0,0,0,0,0,5.4092,5.4092,0,5.4109,5.411,5.411,5.4036,5.4034,5.4032,5.403,5.4045,5.4047,5.405,0,0,0,0,0,0,0,0,0,0,0,0,0,5.3992,5.3994,5.4092,5.4092,5.4093,5.4109,5.411,5.411,5.4037,5.4034,5.4032,5.4029,5.4044,5.4047,5.405,0,0,0,0,0,0,0,0,0,0,0,0,0,5.4025,5.3995,5.4092,5.4058,5.4055,5.4109,5.411,5.411,5.4037,5.4034,5.4031,5.4028,5.4043,5.4047,5.405,5.4137,0,0,5.4061,5.4063,0,0,0,0,0,0,0,0,5.4023,5.4029,5.4063,5.4061,5.4058,5.4068,5.408,5.4119,5.4038,5.4044,5.403,5.4026,5.4055,5.4057,5.4068,5.4137,5.4138,5.4062,5.4064,5.4065,5.4066,0,0,0,0,0,0,0,5.4021,5.4028,5.4099,5.4064,5.406,5.4041,5.4042,5.4087,5.4067,5.4043,5.4038,5.4041,5.4053,5.4064,5.4067,5.4138,5.4061,5.4065,5.4067,5.4068,5.4277,5.4281,0,0,0,0,0,0,5.4024,5.4026,5.4098,5.4099,5.4032,5.4045,5.4047,5.4068,5.4067,5.4063,5.4044,5.4038,5.406,5.4063,5.4068,5.4166,5.4065,5.4069,5.4071,5.4274,5.4278,5.4282,0,0,0,0,0,0,5.4022,5.4031,5.4098,5.4061,5.4068,5.4051,5.4075,5.407,5.4081,5.4067,5.4063,5.406,5.4057,5.4063,5.412,5.4166,5.407,5.4073,5.427,5.4275,5.428,5.4367,0,0,0,0,0,0,5.4019,5.4031,5.4064,5.4063,5.4071,5.4151,5.4078,5.4072,5.4088,5.408,5.4081,5.4078,5.4055,5.4115,5.4123,5.4169,5.4076,5.4266,5.4272,5.4278,5.4359,5.4374,5.4387,0,0,0,0,0,5.4016,5.4088,5.4066,5.4076,5.4112,5.4154,5.4158,5.4132,5.4092,5.4124,5.4115,5.4078,5.416,5.4121,5.413,5.4178,5.4263,5.4271,5.4278,5.4353,5.4371,5.4386,0,0,0,0,0,0,5.4094,5.4087,5.4063,5.4137,5.4147,5.4141,5.4182,5.4152,5.4172,5.4163,5.4129,5.413,5.4192,5.4191,5.4148,5.426,5.4204,5.4214,5.4259,5.4275,5.4289,5.4286,5.4079,0,0,0,0,0,5.4121,5.4156,5.4147,5.4213,5.4219,5.42,5.4217,5.4196,5.4204,5.4207,5.4202,5.4211,5.4238,5.4257,5.4282,5.436,5.4358,5.4397,5.4411,5.4422,5.443,5.4468,5.4485,5.4307,5.4307,5.4307,0,0,5.4174,5.4175,5.4199,5.4229,5.4233,5.4269,5.4204,5.4245,5.427,5.4213,5.4266,5.4263,5.427,5.4338,5.4367,5.4338,5.4479,5.4432,5.4441,5.4442,5.4478,5.4495,5.451,5.4312,5.4311,5.431,0,0,5.429,5.4295,5.4349,5.4355,5.4364,5.4351,5.4364,5.4363,5.4359,5.4412,5.437,5.4399,5.4448,5.4454,5.4464,5.4582,5.4547,5.4591,5.466,5.4699,5.4712,5.4725,5.4764,5.4779,5.46,5.46,5.46,0,5.4355,5.4408,5.438,5.4424,5.4437,5.4388,5.4442,5.4449,5.4465,5.4475,5.4443,5.4503,5.4504,5.4571,5.46,5.461,5.4622,5.4589,5.4713,5.4725,5.4736,5.4773,5.4788,5.4605,5.4604,5.4604,5.4603,0,5.4486,5.4523,5.4566,5.4583,5.4601,5.465,5.4628,5.465,5.4628,5.4617,5.4671,5.4672,5.4695,5.471,5.4688,5.4773,5.4755,5.4719,5.4661,5.4758,5.4792,5.4807,5.4612,5.461,5.4609,5.4608,0,0,5.465,5.4651,5.4667,5.4673,5.4679,5.4706,5.4752,5.4776,5.4794,5.4807,5.4842,5.4885,5.4852,5.4863,5.4841,5.4875,5.4965,5.4835,5.4834,5.4857,5.5056,5.5081,5.5099,5.4944,5.4946,5.4948,5.5055,0,5.476,5.4839,5.4815,5.4893,5.4926,5.488,5.492,5.4927,5.4919,5.4944,5.4935,5.4965,5.492,5.4925,5.4957,5.4948,5.5005,5.494,5.4974,5.4976,5.4971,5.5117,5.5144,5.5244,5.5068,5.5071,5.5072,0,5.49,5.4918,5.5,5.4999,5.5012,5.5048,5.5066,5.5092,5.5099,5.509,5.5103,5.5075,5.5118,5.5062,5.512,5.5077,5.5089,5.5087,5.509,5.509,5.5028,5.5118,5.5276,5.529,5.5094,5.5092,5.509,0,5.5007,5.5053,5.5107,5.5114,5.5115,5.5141,5.5143,5.5146,5.5161,5.5178,5.5187,5.5208,5.5219,5.5236,5.5213,5.5176,5.5274,5.5217,5.5266,5.5266,5.5286,5.5285,5.5446,5.53,5.5299,5.5299,5.5299,0,5.5132,5.5183,5.5155,5.5188,5.5243,5.5216,5.5271,5.5267,5.5271,5.5301,5.5264,5.5293,5.5263,5.5289,5.5272,5.5321,5.5327,5.532,5.5314,5.5321,5.5322,5.5327,5.5318,5.5303,5.5302,5.5301,5.5301,0,5.526,5.5244,5.5299,5.5296,5.5296,5.5337,5.5333,5.5363,5.5352,5.5391,5.5399,5.5382,5.5411,5.5391,5.5419,5.5408,5.5471,5.5457,5.5469,5.5464,5.5513,5.5508,5.5681,5.5701,5.5545,5.5546,5.5548,0,5.5339,5.5377,5.5378,5.5396,5.54,5.543,5.5445,5.5419,5.5436,5.5447,5.5474,5.55,5.5519,5.5567,5.5556,5.5578,5.5562,5.5621,5.5565,5.5571,5.556,5.5557,5.5559,5.5632,5.5634,5.5635,5.5636,0,5.548,5.547,5.5494,5.5515,5.5534,5.555,5.5561,5.5578,5.5552,5.5573,5.5602,5.5617,5.5646,5.5671,5.5689,5.5689,5.5658,5.5655,5.5667,5.5673,5.5677,5.5673,5.5497,5.565,5.5649,5.5648,5.5647,5.5646,5.5584,5.5615,5.562,5.5647,5.5654,5.5666,5.5693,5.5686,5.571,5.5732,5.5716,5.575,5.5754,5.5775,5.5779,5.5805,5.578,5.5798,5.5802,5.5806,5.5812,5.5676,5.5808,5.5808,5.5807,5.5807,5.5807,0,5.5721,5.5722,5.5748,5.5765,5.5787,5.5757,5.5769,5.5788,5.5819,5.5826,5.5846,5.5878,5.5903,5.5895,5.5916,5.5938,5.5924,5.5944,5.594,5.5941,5.5834,5.582,5.5955,5.5955,5.5955,5.5955,5.5954,5.5954,5.5794,5.5844,5.5835,5.5887,5.5888,5.5921,5.593,5.594,5.5946,5.5984,5.6004,5.5999,5.6,5.6021,5.6042,5.6038,5.6047,5.6072,5.6063,5.5963,5.5948,5.5934,5.5921,5.6074,5.6075,5.6167,5.6168,5.6169]}]]